RYR67MY LIME-EFHK

Flight info

Callsign RYR67MY
Flight time N/A
Altitude 18000
Route OSKOR M985 TAGIP/N0451F380 DCT BRENO/N0450F370 DCT ALUTU DCT RUDNO/N0452F380 L132 AGNAV/N0452F370 DCT SUPIL DCT KILNU DCT UNRIG DCT BODLA DCT DEMUR N746 GORPI DCT NEBSI DCT EVADI Y370 DIVAM
Aircraft B38M/M-SDE1FGHILORVWXY/HB1

Departure

Time N/A
Airport Il Caravaggio International Airport (LIME)

Arrival

Time 2026-05-06 17:21
Airport Helsinki Vantaa Airport (EFHK)
Time Latitude Longitude Altitude Speed Heading
2026-05-06 15:26 48.51897 12.11393 37750 ft 491 kts 17°
2026-05-06 15:26 48.58358 12.14747 37728 ft 492 kts 17°
2026-05-06 15:27 48.64838 12.18094 37722 ft 492 kts 17°
2026-05-06 15:27 48.71333 12.21454 37728 ft 493 kts 17°
2026-05-06 15:28 48.77825 12.24823 37725 ft 493 kts 17°
2026-05-06 15:28 48.84241 12.28161 37729 ft 494 kts 17°
2026-05-06 15:29 48.90702 12.31532 37739 ft 494 kts 17°
2026-05-06 15:29 48.97166 12.34913 37747 ft 494 kts 17°
2026-05-06 15:30 49.03665 12.38323 37743 ft 495 kts 17°
2026-05-06 15:30 49.10176 12.41747 37746 ft 495 kts 17°
2026-05-06 15:31 49.16049 12.44845 37740 ft 495 kts 17°
2026-05-06 15:31 49.22574 12.48296 37744 ft 495 kts 17°
2026-05-06 15:32 49.32263 12.53434 37739 ft 494 kts 17°
2026-05-06 15:32 49.38893 12.55793 37746 ft 492 kts
2026-05-06 15:33 49.45592 12.57913 37744 ft 492 kts
2026-05-06 15:33 49.52311 12.60033 37745 ft 492 kts
2026-05-06 15:34 49.57818 12.61625 37745 ft 490 kts
2026-05-06 15:34 49.64558 12.63228 37749 ft 490 kts
2026-05-06 15:35 49.71306 12.64883 37748 ft 490 kts
2026-05-06 15:35 49.78046 12.66544 37759 ft 491 kts
2026-05-06 15:36 49.84792 12.68210 37752 ft 491 kts
2026-05-06 15:36 49.91540 12.69883 37764 ft 491 kts
2026-05-06 15:37 49.98285 12.71559 37781 ft 490 kts
2026-05-06 15:37 50.05016 12.73237 37786 ft 490 kts
2026-05-06 15:38 50.11743 12.74918 37797 ft 489 kts
2026-05-06 15:38 50.18350 12.76574 37777 ft 489 kts
2026-05-06 15:39 50.24988 12.78243 37773 ft 488 kts
2026-05-06 15:39 50.31696 12.79934 37771 ft 488 kts
2026-05-06 15:40 50.38267 12.82523 37743 ft 490 kts 26°
2026-05-06 15:40 50.43375 12.87164 37764 ft 493 kts 29°
2026-05-06 15:41 50.49474 12.91967 37756 ft 487 kts 13°
2026-05-06 15:41 50.55938 12.95061 37760 ft 489 kts 15°
2026-05-06 15:42 50.62456 12.98197 37753 ft 489 kts 15°
2026-05-06 15:42 50.68966 13.01315 37759 ft 489 kts 15°
2026-05-06 15:43 50.75484 13.04444 37759 ft 489 kts 15°
2026-05-06 15:43 50.81993 13.07577 37760 ft 489 kts 15°
2026-05-06 15:44 50.88514 13.10726 37766 ft 489 kts 15°
2026-05-06 15:44 50.95011 13.13871 37768 ft 489 kts 15°
2026-05-06 15:45 51.01528 13.17037 37763 ft 489 kts 15°
2026-05-06 15:45 51.08034 13.20207 37767 ft 489 kts 15°
2026-05-06 15:46 51.14035 13.23138 37769 ft 489 kts 15°
2026-05-06 15:46 51.20551 13.26330 37772 ft 490 kts 15°
2026-05-06 15:47 51.27068 13.29532 37780 ft 490 kts 15°
2026-05-06 15:47 51.33549 13.32726 37778 ft 491 kts 15°
2026-05-06 15:48 51.39998 13.35913 37782 ft 491 kts 15°
2026-05-06 15:48 51.46533 13.39153 37787 ft 491 kts 15°
2026-05-06 15:49 51.53067 13.42402 37790 ft 491 kts 15°
2026-05-06 15:49 51.59602 13.45660 37796 ft 492 kts 15°
2026-05-06 15:50 51.66138 13.48930 37799 ft 492 kts 15°
2026-05-06 15:50 51.72672 13.52208 37801 ft 491 kts 15°
2026-05-06 15:51 51.79199 13.55491 37803 ft 491 kts 15°
2026-05-06 15:51 51.85736 13.58797 37804 ft 491 kts 17°
2026-05-06 15:52 51.92155 13.62425 37806 ft 492 kts 17°
2026-05-06 15:52 51.98617 13.66064 37809 ft 490 kts 17°
2026-05-06 15:53 52.05051 13.69693 37818 ft 489 kts 17°
2026-05-06 15:53 52.11482 13.73332 37817 ft 488 kts 17°
2026-05-06 15:54 52.17820 13.76929 37823 ft 488 kts 17°
2026-05-06 15:54 52.24233 13.80578 37827 ft 487 kts 17°
2026-05-06 15:55 52.30635 13.84234 37826 ft 487 kts 17°
2026-05-06 15:55 52.36994 13.87877 37828 ft 487 kts 17°
2026-05-06 15:56 52.43382 13.91546 37822 ft 487 kts 17°
2026-05-06 15:56 52.49791 13.95239 37830 ft 488 kts 17°
2026-05-06 15:57 52.56129 13.98902 37833 ft 489 kts 18°
2026-05-06 15:57 52.62557 14.02630 37830 ft 490 kts 18°
2026-05-06 15:58 52.68999 14.06376 37835 ft 491 kts 18°
2026-05-06 15:58 52.75458 14.10145 37836 ft 492 kts 18°
2026-05-06 15:59 52.81857 14.13890 37837 ft 492 kts 18°
2026-05-06 15:59 52.88320 14.17685 37836 ft 492 kts 18°
2026-05-06 16:00 52.94778 14.21488 37841 ft 493 kts 18°
2026-05-06 16:00 53.01239 14.25306 37836 ft 492 kts 17°
2026-05-06 16:01 53.06822 14.28614 37838 ft 492 kts 17°
2026-05-06 16:01 53.13285 14.32456 37838 ft 492 kts 17°
2026-05-06 16:02 53.19699 14.36279 37842 ft 492 kts 17°
2026-05-06 16:02 53.26149 14.40135 37842 ft 492 kts 18°
2026-05-06 16:03 53.32436 14.44707 37853 ft 493 kts 21°
2026-05-06 16:03 53.38724 14.49316 37839 ft 493 kts 21°
2026-05-06 16:04 53.45023 14.53920 37846 ft 493 kts 21°
2026-05-06 16:04 53.51309 14.58529 37830 ft 492 kts 21°
2026-05-06 16:05 53.57590 14.63147 37831 ft 492 kts 21°
2026-05-06 16:05 53.63867 14.67779 37837 ft 492 kts 21°
2026-05-06 16:06 53.70102 14.72394 37834 ft 492 kts 21°
2026-05-06 16:06 53.76373 14.77052 37839 ft 492 kts 21°
2026-05-06 16:07 53.82639 14.81720 37848 ft 492 kts 21°
2026-05-06 16:07 53.88907 14.86405 37852 ft 492 kts 21°
2026-05-06 16:08 53.95172 14.91104 37857 ft 492 kts 21°
2026-05-06 16:08 54.01412 14.95798 37860 ft 492 kts 21°
2026-05-06 16:09 54.07675 15.00522 37865 ft 492 kts 21°
2026-05-06 16:09 54.13937 15.05255 37867 ft 492 kts 21°
2026-05-06 16:10 54.20180 15.09986 37870 ft 491 kts 21°
2026-05-06 16:10 54.26393 15.14710 37872 ft 491 kts 21°
2026-05-06 16:11 54.32649 15.19482 37876 ft 491 kts 21°
2026-05-06 16:11 54.38900 15.24271 37878 ft 491 kts 21°
2026-05-06 16:12 54.45127 15.29077 37881 ft 491 kts 21°
2026-05-06 16:12 54.51355 15.33898 37882 ft 490 kts 21°
2026-05-06 16:13 54.57570 15.38725 37889 ft 490 kts 21°
2026-05-06 16:13 54.63741 15.43535 37891 ft 489 kts 21°
2026-05-06 16:14 54.69951 15.48390 37895 ft 489 kts 22°
2026-05-06 16:14 54.76153 15.53256 37896 ft 489 kts 22°
2026-05-06 16:15 54.82347 15.58132 37899 ft 488 kts 22°
2026-05-06 16:15 54.88541 15.63024 37902 ft 488 kts 22°
2026-05-06 16:16 54.94467 15.68775 37919 ft 491 kts 32°
2026-05-06 16:16 55.00108 15.75320 37894 ft 491 kts 32°
2026-05-06 16:17 55.05800 15.81969 37906 ft 491 kts 32°
2026-05-06 16:17 55.11470 15.88616 37923 ft 491 kts 32°
2026-05-06 16:18 55.17145 15.95293 37926 ft 491 kts 32°
2026-05-06 16:18 55.22809 16.01979 37904 ft 490 kts 32°
2026-05-06 16:19 55.27514 16.07552 37914 ft 491 kts 32°
2026-05-06 16:19 55.33156 16.14250 38291 ft 488 kts 32°
2026-05-06 16:20 55.36896 16.18711 38453 ft 492 kts 32°
2026-05-06 16:20 55.39729 16.22094 38618 ft 492 kts 32°
2026-05-06 16:20 55.41652 16.24394 38723 ft 493 kts 32°
2026-05-06 16:20 55.44445 16.27738 38877 ft 492 kts 32°
2026-05-06 16:21 55.50110 16.34541 38915 ft 492 kts 32°
2026-05-06 16:21 55.55755 16.41343 38930 ft 491 kts 32°
2026-05-06 16:22 55.61401 16.48171 38932 ft 491 kts 32°
2026-05-06 16:22 55.67042 16.55016 38927 ft 491 kts 32°
2026-05-06 16:23 55.72667 16.61867 38926 ft 491 kts 32°
2026-05-06 16:23 55.78301 16.68753 38933 ft 491 kts 32°
2026-05-06 16:24 55.83931 16.75658 38931 ft 491 kts 32°
2026-05-06 16:24 55.89522 16.82541 38937 ft 491 kts 32°
2026-05-06 16:25 55.95145 16.89488 38935 ft 491 kts 32°
2026-05-06 16:25 56.00758 16.96448 38937 ft 491 kts 32°
2026-05-06 16:26 56.06373 17.03434 38940 ft 491 kts 32°
2026-05-06 16:26 56.11984 17.10443 38937 ft 491 kts 32°
2026-05-06 16:27 56.17595 17.17474 38943 ft 491 kts 32°
2026-05-06 16:27 56.23194 17.24518 38946 ft 491 kts 32°
2026-05-06 16:28 56.28793 17.31587 38943 ft 491 kts 33°
2026-05-06 16:28 56.34356 17.38636 38945 ft 492 kts 33°
2026-05-06 16:29 56.39956 17.45759 38946 ft 492 kts 33°
2026-05-06 16:29 56.45547 17.52893 38950 ft 492 kts 33°
2026-05-06 16:30 56.50191 17.58842 38950 ft 492 kts 33°
2026-05-06 16:30 56.56716 17.67231 38954 ft 493 kts 33°
2026-05-06 16:31 56.62275 17.74406 38947 ft 493 kts 33°
2026-05-06 16:31 56.67898 17.81690 38953 ft 493 kts 33°
2026-05-06 16:32 56.73445 17.88902 38954 ft 493 kts 33°
2026-05-06 16:32 56.79020 17.96178 38954 ft 493 kts 33°
2026-05-06 16:33 56.84600 18.03488 38956 ft 493 kts 33°
2026-05-06 16:34 56.92974 18.14509 38962 ft 494 kts 33°
2026-05-06 16:34 56.98549 18.21881 38962 ft 494 kts 33°
2026-05-06 16:35 57.04122 18.29279 38962 ft 494 kts 33°
2026-05-06 16:35 57.09665 18.36665 38966 ft 495 kts 33°
2026-05-06 16:36 57.15238 18.44118 38968 ft 495 kts 33°
2026-05-06 16:36 57.20815 18.51606 38969 ft 495 kts 33°
2026-05-06 16:37 57.26382 18.59109 38973 ft 495 kts 33°
2026-05-06 16:37 57.31956 18.66650 38976 ft 496 kts 33°
2026-05-06 16:38 57.37487 18.74160 38977 ft 496 kts 33°
2026-05-06 16:38 57.43051 18.81746 38979 ft 496 kts 33°
2026-05-06 16:39 57.48608 18.89352 38983 ft 496 kts 33°
2026-05-06 16:39 57.54164 18.96984 38985 ft 496 kts 33°
2026-05-06 16:40 57.59724 19.04652 38984 ft 496 kts 33°
2026-05-06 16:40 57.65275 19.12338 38990 ft 497 kts 34°
2026-05-06 16:41 57.70787 19.20001 38991 ft 497 kts 34°
2026-05-06 16:41 57.76326 19.27730 38995 ft 497 kts 34°
2026-05-06 16:42 57.81882 19.35512 38993 ft 497 kts 34°
2026-05-06 16:42 57.87418 19.43298 38992 ft 498 kts 34°
2026-05-06 16:43 57.92957 19.51119 38995 ft 498 kts 34°
2026-05-06 16:43 57.98458 19.58917 38993 ft 498 kts 34°
2026-05-06 16:44 58.03992 19.66793 38999 ft 498 kts 34°
2026-05-06 16:44 58.09530 19.74705 38999 ft 499 kts 34°
2026-05-06 16:45 58.15054 19.82630 39003 ft 499 kts 34°
2026-05-06 16:45 58.20582 19.90592 39004 ft 499 kts 34°
2026-05-06 16:46 58.26103 19.98576 39008 ft 499 kts 34°
2026-05-06 16:46 58.31626 20.06596 39007 ft 499 kts 34°
2026-05-06 16:47 58.37147 20.14643 39010 ft 499 kts 34°
2026-05-06 16:47 58.42661 20.22713 39007 ft 500 kts 34°
2026-05-06 16:48 58.48139 20.30766 39007 ft 500 kts 34°
2026-05-06 16:48 58.53648 20.38891 39014 ft 500 kts 34°
2026-05-06 16:49 58.59151 20.47037 39013 ft 500 kts 34°
2026-05-06 16:49 58.64653 20.55214 39016 ft 500 kts 34°
2026-05-06 16:50 58.70163 20.63435 39016 ft 500 kts 34°
2026-05-06 16:50 58.75661 20.71671 39017 ft 500 kts 34°
2026-05-06 16:51 58.81121 20.79884 39017 ft 501 kts 34°
2026-05-06 16:51 58.86608 20.88169 39017 ft 500 kts 34°
2026-05-06 16:52 58.91898 20.96948 39015 ft 504 kts 45°
2026-05-06 16:52 58.96673 21.06924 39018 ft 505 kts 44°
2026-05-06 16:53 59.01470 21.16905 39018 ft 505 kts 44°
2026-05-06 16:53 59.06253 21.26901 39022 ft 505 kts 44°
2026-05-06 16:54 59.10999 21.36865 39024 ft 505 kts 44°
2026-05-06 16:54 59.15802 21.46993 39020 ft 506 kts 45°
2026-05-06 16:55 59.20540 21.57029 39028 ft 506 kts 45°
2026-05-06 16:55 59.24979 21.67687 38236 ft 507 kts 50°
2026-05-06 16:55 59.27194 21.73184 36801 ft 522 kts 49°
2026-05-06 16:56 59.29432 21.78705 36216 ft 511 kts 49°
2026-05-06 16:56 59.31646 21.84157 35316 ft 515 kts 49°
2026-05-06 16:56 59.33881 21.89671 34602 ft 516 kts 49°
2026-05-06 16:56 59.36108 21.95180 33827 ft 519 kts 49°
2026-05-06 16:57 59.38354 22.00750 32911 ft 522 kts 49°
2026-05-06 16:57 59.40611 22.06356 31980 ft 525 kts 49°
2026-05-06 16:57 59.42884 22.12021 31074 ft 529 kts 49°
2026-05-06 16:57 59.45169 22.17726 30198 ft 531 kts 49°
2026-05-06 16:58 59.47430 22.23382 29235 ft 533 kts 49°
2026-05-06 16:58 59.49741 22.29183 28457 ft 530 kts 49°
2026-05-06 16:58 59.51980 22.34814 27778 ft 526 kts 49°
2026-05-06 16:58 59.53096 22.37623 27437 ft 524 kts 49°
2026-05-06 16:59 59.55299 22.43186 26821 ft 519 kts 49°
2026-05-06 16:59 59.57508 22.48774 26217 ft 515 kts 49°
2026-05-06 16:59 59.59702 22.54342 25612 ft 511 kts 49°
2026-05-06 16:59 59.61870 22.59852 25044 ft 507 kts 49°
2026-05-06 17:00 59.64026 22.65346 24490 ft 503 kts 49°
2026-05-06 17:00 59.66163 22.70803 23958 ft 498 kts 49°
2026-05-06 17:00 59.68268 22.76195 23443 ft 494 kts 49°
2026-05-06 17:00 59.70360 22.81564 22810 ft 490 kts 49°
2026-05-06 17:01 59.72431 22.86891 22268 ft 485 kts 49°
2026-05-06 17:01 59.74478 22.92164 21694 ft 482 kts 49°
2026-05-06 17:01 59.76507 22.97410 21149 ft 478 kts 49°
2026-05-06 17:01 59.78528 23.02642 20606 ft 474 kts 49°
2026-05-06 17:02 59.80521 23.07813 20096 ft 470 kts 46°
2026-05-06 17:02 59.82508 23.12978 19553 ft 468 kts 49°
2026-05-06 17:02 59.84467 23.18091 19067 ft 464 kts 49°
2026-05-06 17:02 59.86422 23.23195 18579 ft 461 kts 49°
2026-05-06 17:03 59.88346 23.28234 17888 ft 458 kts 49°
2026-05-06 17:03 59.90265 23.33268 17553 ft 454 kts 50°
2026-05-06 17:03 59.92179 23.38301 17028 ft 451 kts 50°
2026-05-06 17:03 59.94037 23.43197 16583 ft 447 kts 50°
2026-05-06 17:04 59.95905 23.48133 16113 ft 443 kts 50°
2026-05-06 17:04 59.97749 23.53011 15668 ft 439 kts 50°
2026-05-06 17:04 59.99578 23.57860 15223 ft 435 kts 50°
2026-05-06 17:04 60.01391 23.62677 14795 ft 431 kts 50°
2026-05-06 17:05 60.03180 23.67442 14368 ft 427 kts 50°
2026-05-06 17:05 60.04950 23.72161 14092 ft 419 kts 50°
2026-05-06 17:05 60.06675 23.76774 13867 ft 410 kts 50°
2026-05-06 17:05 60.08364 23.81298 13645 ft 400 kts 50°
2026-05-06 17:06 60.10009 23.85715 13440 ft 391 kts 50°
2026-05-06 17:06 60.11615 23.90032 13247 ft 381 kts 50°
2026-05-06 17:06 60.13177 23.94239 13071 ft 372 kts 50°
2026-05-06 17:06 60.14694 23.98332 12913 ft 362 kts 50°
2026-05-06 17:07 60.15668 24.01038 12809 ft 356 kts 53°
2026-05-06 17:07 60.17014 24.05142 12624 ft 349 kts 55°
2026-05-06 17:07 60.18330 24.09236 12238 ft 349 kts 55°
2026-05-06 17:07 60.19649 24.13333 11865 ft 348 kts 55°
2026-05-06 17:08 60.20961 24.17417 11479 ft 347 kts 55°
2026-05-06 17:08 60.22271 24.21483 11108 ft 345 kts 55°
2026-05-06 17:08 60.23548 24.25463 10759 ft 342 kts 55°
2026-05-06 17:08 60.24834 24.29472 10414 ft 340 kts 55°
2026-05-06 17:09 60.26112 24.33458 10077 ft 337 kts 55°
2026-05-06 17:09 60.27383 24.37417 9707 ft 334 kts 55°
2026-05-06 17:09 60.28638 24.41347 9329 ft 331 kts 55°
2026-05-06 17:09 60.29880 24.45229 8948 ft 328 kts 55°
2026-05-06 17:10 60.31112 24.49080 8574 ft 325 kts 55°
2026-05-06 17:10 60.32332 24.52895 8208 ft 322 kts 55°
2026-05-06 17:10 60.33541 24.56679 7886 ft 318 kts 55°
2026-05-06 17:10 60.34729 24.60393 7622 ft 312 kts 55°
2026-05-06 17:11 60.35891 24.64038 7390 ft 306 kts 55°
2026-05-06 17:11 60.37031 24.67621 7133 ft 301 kts 55°
2026-05-06 17:11 60.38154 24.71154 6899 ft 296 kts 55°
2026-05-06 17:11 60.39257 24.74633 6655 ft 291 kts 55°
2026-05-06 17:12 60.40342 24.78058 6368 ft 289 kts 55°
2026-05-06 17:12 60.41422 24.81457 6045 ft 286 kts 55°
2026-05-06 17:12 60.42494 24.84849 5740 ft 284 kts 55°
2026-05-06 17:12 60.43557 24.88216 5445 ft 283 kts 55°
2026-05-06 17:13 60.44614 24.91571 5136 ft 281 kts 55°
2026-05-06 17:13 60.45655 24.94860 4882 ft 278 kts 55°
2026-05-06 17:13 60.46686 24.98132 4616 ft 276 kts 55°
2026-05-06 17:13 60.47722 25.01405 4349 ft 276 kts 55°
2026-05-06 17:14 60.48756 25.04698 4097 ft 275 kts 55°
2026-05-06 17:14 60.49785 25.07953 3824 ft 274 kts 55°
2026-05-06 17:14 60.50807 25.11199 3575 ft 273 kts 55°
2026-05-06 17:14 60.51832 25.14441 3317 ft 272 kts 55°
2026-05-06 17:15 60.52747 25.17785 3048 ft 273 kts 68°
2026-05-06 17:15 60.53124 25.21539 2810 ft 271 kts 95°
2026-05-06 17:15 60.52492 25.24951 2649 ft 252 kts 131°
2026-05-06 17:15 60.51300 25.27374 2547 ft 235 kts 140°
2026-05-06 17:16 60.50128 25.29530 2414 ft 220 kts 142°
2026-05-06 17:16 60.48868 25.30843 2240 ft 199 kts 178°
2026-05-06 17:16 60.47547 25.30594 2145 ft 183 kts 208°
2026-05-06 17:16 60.46615 25.29004 2027 ft 175 kts 242°
2026-05-06 17:17 60.45980 25.26871 2038 ft 180 kts 238°
2026-05-06 17:17 60.45206 25.24866 2006 ft 184 kts 233°
2026-05-06 17:17 60.44346 25.22868 2014 ft 191 kts 231°
2026-05-06 17:17 60.43447 25.20866 1985 ft 193 kts 230°
2026-05-06 17:18 60.42552 25.18876 2002 ft 193 kts 231°
2026-05-06 17:18 60.41644 25.16862 1987 ft 194 kts 231°
2026-05-06 17:18 60.40735 25.14852 2022 ft 194 kts 230°
2026-05-06 17:18 60.39828 25.12842 2000 ft 193 kts 230°
2026-05-06 17:19 60.38920 25.10836 2013 ft 193 kts 231°
2026-05-06 17:19 60.38018 25.08837 1815 ft 191 kts 231°
2026-05-06 17:19 60.37135 25.06890 1576 ft 182 kts 231°
2026-05-06 17:19 60.36316 25.05079 1350 ft 167 kts 231°
2026-05-06 17:20 60.35581 25.03454 1067 ft 145 kts 229°
2026-05-06 17:20 60.34937 25.02025 740 ft 135 kts 227°
2026-05-06 17:20 60.34321 25.00619 537 ft 133 kts 225°
2026-05-06 17:20 60.33691 24.99258 367 ft 130 kts 224°
2026-05-06 17:21 60.33082 24.97932 217 ft 128 kts 226°
2026-05-06 17:21 60.32538 24.96740 176 ft 89 kts 228°
2026-05-06 17:21 60.32279 24.96168 180 ft 29 kts 227°
2026-05-06 17:21 60.32156 24.95902 179 ft 16 kts 226°
2026-05-06 17:22 60.32074 24.95811 177 ft 15 kts 181°
2026-05-06 17:22 60.31989 24.95912 175 ft 5 kts 136°
2026-05-06 17:22 60.31960 24.95993 173 ft 10 kts 99°
2026-05-06 17:22 60.32005 24.96128 171 ft 14 kts 46°
2026-05-06 17:23 60.32078 24.96286 170 ft 17 kts 49°
2026-05-06 17:23 60.32162 24.96474 170 ft 19 kts 46°
2026-05-06 17:23 60.32236 24.96636 170 ft 12 kts 49°
2026-05-06 17:23 60.32227 24.96763 168 ft 11 kts 153°
2026-05-06 17:24 60.32153 24.96841 169 ft 13 kts 150°
2026-05-06 17:24 60.32066 24.96943 169 ft 16 kts 150°
2026-05-06 17:24 60.31961 24.97054 169 ft 18 kts 154°
2026-05-06 17:24 60.31849 24.97170 169 ft 15 kts 153°
2026-05-06 17:25 60.31745 24.97275 168 ft 18 kts 151°
2026-05-06 17:25 60.31636 24.97388 168 ft 17 kts 154°
2026-05-06 17:25 60.31526 24.97504 163 ft 15 kts 144°
2026-05-06 17:25 60.31477 24.97550 162 ft 2 kts 184°
2026-05-06 17:26 60.31466 24.97533 163 ft 4 kts 224°
2026-05-06 17:26 60.31456 24.97502 164 ft 1 kts 244°
2026-05-06 17:26 60.31452 24.97483 165 ft 4 kts 244°
2026-05-06 17:26 60.31443 24.97449 166 ft 1 kts 243°
2026-05-06 17:27 60.31443 24.97447 166 ft 0 kts 243°
2026-05-06 17:27 60.31442 24.97444 166 ft 0 kts 243°